Location: Concepci�n
(32.5333°N, 117.1167°W)
Time: 20:04:15
(UTC+00:00)

Cosmos 676 Rocket - Pass Details

Date: 08 May 2021
Orbit: 754 x 784 km, 74.0° (Epoch: 18 June)

Event Time Altitude Azimuth Distance (km) Brightness Sun altitude
Rises 12:00:57 0° 345° (NNW) 3,236 7.4 -11.2°
Reaches altitude 10° 12:03:20 10° 346° (NNW) 2,311 6.7 -10.7°
Maximum altitude 12:08:35 79° 73° (ENE) 790 4.2 -9.8°
Drops below altitude 10° 12:13:51 10° 160° (SSE) 2,318 6.4 -8.8°
Sets 12:16:14 0° 162° (SSE) 3,246 7.2 -8.3°
